[[{"header":{"parameterUnit":"m.s-1","parameterCategory":1,"la1":30.2991,"la2":30.254,"lo1":-89.0895,"lo2":-89.0444,"dy":0.0017,"dx":0.0017,"nx":28,"ny":28,"refTime":"2025-09-14T21:00:00:Z","depth":0,"parameterNumber":2,"parameterNumberName":"U-component_of_WINDS"},"data":[0,0,0,0,0,0,0,0,0,0,0,0,0,0,0,0,0,0,0,0,0,0,0,0,0,0,0,0,0,0,0,0,0,0,0,0,0,0,0,0,0,0,0,0,0,0,0,0,0,0,0,0,0,0,0,0,0,0,-1.4109,-1.4108,0,-1.406,-1.406,-1.4059,-1.4032,-1.4032,-1.4032,-1.4032,-1.398,-1.3979,-1.3978,0,0,0,0,0,0,0,0,0,0,0,0,0,-1.4177,-1.4176,-1.4109,-1.4108,-1.4108,-1.406,-1.406,-1.4059,-1.4032,-1.4032,-1.4032,-1.4032,-1.3981,-1.3979,-1.3978,0,0,0,0,0,0,0,0,0,0,0,0,0,-1.414,-1.4176,-1.4109,-1.4088,-1.4086,-1.4061,-1.406,-1.4059,-1.4032,-1.4032,-1.4032,-1.4032,-1.3981,-1.3979,-1.3977,-1.3968,0,0,-1.3971,-1.3971,0,0,0,0,0,0,0,0,-1.4142,-1.4137,-1.4092,-1.409,-1.4087,-1.4052,-1.4065,-1.4028,-1.4032,-1.4052,-1.4032,-1.4031,-1.4004,-1.4,-1.3991,-1.3966,-1.3963,-1.3971,-1.397,-1.3969,-1.3969,0,0,0,0,0,0,0,-1.4145,-1.4139,-1.4089,-1.4091,-1.4088,-1.4081,-1.4076,-1.4058,-1.4029,-1.4051,-1.4048,-1.4043,-1.4003,-1.3993,-1.399,-1.3963,-1.3971,-1.397,-1.3968,-1.3968,-1.3928,-1.3929,0,0,0,0,0,0,-1.4151,-1.4142,-1.4091,-1.4088,-1.4115,-1.408,-1.4074,-1.4063,-1.403,-1.4024,-1.4043,-1.4042,-1.3997,-1.3992,-1.3988,-1.3976,-1.3969,-1.3967,-1.3966,-1.3928,-1.3929,-1.3929,0,0,0,0,0,0,-1.4152,-1.4146,-1.4093,-1.4114,-1.4107,-1.4079,-1.4067,-1.4062,-1.4053,-1.4024,-1.4019,-1.4039,-1.3996,-1.3991,-1.3974,-1.3973,-1.3967,-1.3965,-1.3928,-1.3928,-1.3929,-1.395,0,0,0,0,0,0,-1.4154,-1.4147,-1.4143,-1.4114,-1.4106,-1.4079,-1.4067,-1.4062,-1.405,-1.4048,-1.4019,-1.4014,-1.3996,-1.3977,-1.3972,-1.3971,-1.3963,-1.3928,-1.3928,-1.3929,-1.3949,-1.3951,-1.3953,0,0,0,0,0,-1.4157,-1.415,-1.4143,-1.4137,-1.4101,-1.4079,-1.4075,-1.4055,-1.405,-1.4046,-1.4028,-1.4015,-1.3975,-1.3975,-1.3969,-1.3968,-1.3928,-1.3928,-1.3929,-1.3949,-1.3951,-1.3953,0,0,0,0,0,0,-1.4179,-1.4146,-1.4138,-1.4122,-1.4104,-1.4075,-1.4069,-1.4057,-1.404,-1.4038,-1.4014,-1.4008,-1.3993,-1.3979,-1.398,-1.3958,-1.395,-1.3949,-1.3967,-1.3969,-1.3971,-1.3974,-1.3962,0,0,0,0,0,-1.4182,-1.4168,-1.414,-1.4129,-1.412,-1.4097,-1.4086,-1.4073,-1.4053,-1.4045,-1.4025,-1.4006,-1.3989,-1.3979,-1.3961,-1.3948,-1.3941,-1.3944,-1.3946,-1.3947,-1.3946,-1.3939,-1.394,-1.393,-1.393,-1.393,0,0,-1.4188,-1.4168,-1.4161,-1.4133,-1.4117,-1.4103,-1.409,-1.4075,-1.4065,-1.4042,-1.4025,-1.4011,-1.3988,-1.3973,-1.3965,-1.396,-1.3948,-1.3948,-1.3949,-1.3947,-1.394,-1.3941,-1.3941,-1.393,-1.393,-1.393,0,0,-1.4191,-1.4175,-1.4164,-1.415,-1.4127,-1.4111,-1.4109,-1.4082,-1.4072,-1.4055,-1.4038,-1.4026,-1.3997,-1.3982,-1.397,-1.3971,-1.3958,-1.3966,-1.3974,-1.3967,-1.3968,-1.3969,-1.3969,-1.397,-1.3966,-1.3966,-1.3966,0,-1.4201,-1.4179,-1.416,-1.4147,-1.4135,-1.4117,-1.4106,-1.4092,-1.4065,-1.4057,-1.4053,-1.4018,-1.4001,-1.3982,-1.3983,-1.3974,-1.3971,-1.3968,-1.397,-1.397,-1.397,-1.3971,-1.3971,-1.3967,-1.3967,-1.3967,-1.3966,0,-1.4193,-1.4179,-1.4173,-1.4148,-1.4136,-1.4124,-1.4103,-1.4093,-1.4082,-1.4067,-1.4051,-1.403,-1.4009,-1.4004,-1.3992,-1.3985,-1.3983,-1.3974,-1.3966,-1.3973,-1.3973,-1.3972,-1.3968,-1.3968,-1.3968,-1.3967,0,0,-1.4206,-1.4173,-1.4171,-1.416,-1.4135,-1.4123,-1.4111,-1.4092,-1.4084,-1.4067,-1.4056,-1.4033,-1.4026,-1.4013,-1.4,-1.3994,-1.3997,-1.3987,-1.3986,-1.3989,-1.3988,-1.3994,-1.3994,-1.3989,-1.3989,-1.3989,-1.399,0,-1.4206,-1.4183,-1.4167,-1.4151,-1.4137,-1.4121,-1.411,-1.4094,-1.408,-1.4067,-1.4052,-1.4037,-1.4028,-1.4021,-1.4014,-1.3998,-1.3996,-1.3998,-1.3979,-1.3978,-1.3984,-1.3994,-1.4,-1.4001,-1.399,-1.399,-1.399,0,-1.4202,-1.4186,-1.4169,-1.4147,-1.414,-1.4131,-1.4113,-1.4101,-1.4082,-1.4073,-1.406,-1.4047,-1.4033,-1.4028,-1.401,-1.4011,-1.4003,-1.3994,-1.3993,-1.399,-1.3983,-1.399,-1.4001,-1.4001,-1.3989,-1.3989,-1.3989,0,-1.4214,-1.4188,-1.4175,-1.4166,-1.4139,-1.4134,-1.4122,-1.4104,-1.4094,-1.4078,-1.4071,-1.4054,-1.4044,-1.4032,-1.4014,-1.4012,-1.3998,-1.3991,-1.399,-1.399,-1.3987,-1.3987,-1.3996,-1.3983,-1.3983,-1.3983,-1.3983,0,-1.4214,-1.4204,-1.418,-1.4171,-1.416,-1.4142,-1.4131,-1.4119,-1.4103,-1.4092,-1.4077,-1.4067,-1.4045,-1.4032,-1.4019,-1.4006,-1.4002,-1.3994,-1.3991,-1.3995,-1.3996,-1.3988,-1.3988,-1.3983,-1.3983,-1.3983,-1.3983,0,-1.4225,-1.4208,-1.4192,-1.4169,-1.4163,-1.4156,-1.4136,-1.4128,-1.4115,-1.4101,-1.4097,-1.4076,-1.4061,-1.4043,-1.4022,-1.4013,-1.4002,-1.3996,-1.4008,-1.4006,-1.4006,-1.4006,-1.4009,-1.4009,-1.3997,-1.3997,-1.3997,0,-1.4226,-1.4218,-1.4195,-1.4187,-1.4176,-1.4163,-1.4153,-1.4136,-1.4126,-1.4106,-1.41,-1.4084,-1.407,-1.4047,-1.403,-1.4014,-1.4008,-1.4011,-1.4005,-1.4011,-1.4008,-1.4008,-1.4008,-1.4011,-1.4012,-1.4012,-1.4012,0,-1.4229,-1.4222,-1.4209,-1.4193,-1.4182,-1.4168,-1.4154,-1.4149,-1.4128,-1.4118,-1.4103,-1.4093,-1.4072,-1.4057,-1.4039,-1.4028,-1.4016,-1.4014,-1.4013,-1.4017,-1.4024,-1.402,-1.4011,-1.4014,-1.4013,-1.4013,-1.4013,-1.4013,-1.4235,-1.4228,-1.4211,-1.4196,-1.4184,-1.4172,-1.4163,-1.415,-1.4137,-1.4119,-1.411,-1.4095,-1.4079,-1.4054,-1.4043,-1.4032,-1.4028,-1.4026,-1.4026,-1.4025,-1.4027,-1.4027,-1.4029,-1.4029,-1.4029,-1.4028,-1.4028,0,-1.4238,-1.4227,-1.4214,-1.4195,-1.4185,-1.4177,-1.4161,-1.4152,-1.414,-1.4126,-1.4113,-1.4096,-1.4082,-1.4065,-1.4049,-1.4043,-1.4038,-1.404,-1.4039,-1.4037,-1.4031,-1.4034,-1.4045,-1.4045,-1.4045,-1.4045,-1.4045,-1.4045,-1.4238,-1.4225,-1.4216,-1.4198,-1.4187,-1.4173,-1.4165,-1.4154,-1.4142,-1.4125,-1.4113,-1.4102,-1.4087,-1.407,-1.4057,-1.4052,-1.4047,-1.4051,-1.4044,-1.4039,-1.4037,-1.4036,-1.4038,-1.405,-1.405,-1.4051,-1.4051,-1.4051]},{"header":{"parameterUnit":"m.s-1","parameterCategory":1,"la1":30.2991,"la2":30.254,"lo1":-89.0895,"lo2":-89.0444,"dy":0.0017,"dx":0.0017,"nx":28,"ny":28,"refTime":"2025-09-14T21:00:00:Z","depth":0,"parameterNumber":3,"parameterNumberName":"V-component_of_WINDS"},"data":[0,0,0,0,0,0,0,0,0,0,0,0,0,0,0,0,0,0,0,0,0,0,0,0,0,0,0,0,0,0,0,0,0,0,0,0,0,0,0,0,0,0,0,0,0,0,0,0,0,0,0,0,0,0,0,0,0,0,2.8009,2.8009,0,2.803,2.803,2.803,2.8072,2.8073,2.8074,2.8074,2.8094,2.8094,2.8094,0,0,0,0,0,0,0,0,0,0,0,0,0,2.8002,2.8002,2.8009,2.8009,2.8009,2.803,2.803,2.803,2.8072,2.8073,2.8074,2.8075,2.8094,2.8094,2.8094,0,0,0,0,0,0,0,0,0,0,0,0,0,2.8012,2.8002,2.8008,2.8032,2.8035,2.803,2.803,2.803,2.8072,2.8073,2.8074,2.8075,2.8094,2.8094,2.8094,2.8067,0,0,2.8093,2.8092,0,0,0,0,0,0,0,0,2.8012,2.8012,2.8029,2.8031,2.8033,2.805,2.8035,2.8042,2.8071,2.8058,2.8075,2.8076,2.8078,2.8079,2.8081,2.8068,2.8068,2.8093,2.8092,2.8092,2.8092,0,0,0,0,0,0,0,2.8011,2.8012,2.8017,2.8029,2.8032,2.8041,2.8044,2.8037,2.8061,2.8059,2.8062,2.8064,2.808,2.8081,2.8081,2.8069,2.8093,2.8092,2.8092,2.8092,2.8033,2.8032,0,0,0,0,0,0,2.8007,2.8011,2.8016,2.8018,2.8025,2.804,2.8044,2.8043,2.8061,2.8065,2.8063,2.8066,2.8081,2.8082,2.8082,2.8051,2.8092,2.8092,2.8092,2.8035,2.8033,2.8032,0,0,0,0,0,0,2.8007,2.8007,2.8015,2.8015,2.8017,2.8039,2.8038,2.8043,2.8044,2.8064,2.8068,2.806,2.8082,2.8083,2.807,2.8052,2.8092,2.8091,2.8036,2.8034,2.8032,2.7987,0,0,0,0,0,0,2.8006,2.8007,2.7997,2.8015,2.8017,2.8003,2.8037,2.8042,2.8043,2.8047,2.8062,2.8066,2.8083,2.807,2.807,2.8052,2.8091,2.8038,2.8035,2.8033,2.7991,2.7984,2.7979,0,0,0,0,0,2.8006,2.7983,2.7996,2.7997,2.8005,2.8002,2.8003,2.8024,2.8042,2.8032,2.8045,2.8065,2.8054,2.8069,2.8068,2.805,2.8039,2.8036,2.8033,2.7993,2.7985,2.7979,0,0,0,0,0,0,2.7962,2.7986,2.8001,2.7983,2.799,2.8009,2.7997,2.8015,2.8017,2.8021,2.8046,2.8049,2.8033,2.8041,2.8056,2.8024,2.805,2.8047,2.802,2.8012,2.8006,2.8004,2.8091,0,0,0,0,0,2.7951,2.7947,2.7968,2.795,2.7953,2.7975,2.7974,2.799,2.7998,2.8001,2.8013,2.802,2.8018,2.8016,2.8015,2.7993,2.7996,2.798,2.7974,2.7969,2.7965,2.7953,2.7945,2.8022,2.8022,2.8022,0,0,2.7927,2.7939,2.7935,2.7942,2.7949,2.7944,2.7977,2.797,2.7966,2.8,2.7988,2.7997,2.8006,2.7988,2.7981,2.7994,2.7945,2.7965,2.7961,2.796,2.7949,2.7941,2.7935,2.802,2.802,2.8021,0,0,2.788,2.7889,2.7875,2.7882,2.7893,2.7908,2.7904,2.792,2.7928,2.7917,2.7942,2.7937,2.7934,2.7939,2.7941,2.7896,2.7914,2.7895,2.7863,2.7851,2.7844,2.7839,2.7822,2.7815,2.7892,2.7892,2.7892,0,2.7848,2.7841,2.7866,2.7857,2.7859,2.789,2.7875,2.7881,2.7891,2.7891,2.7906,2.7902,2.791,2.7893,2.7882,2.7883,2.7879,2.7893,2.7844,2.7839,2.7834,2.7817,2.7811,2.7889,2.789,2.789,2.789,0,2.7801,2.7796,2.7784,2.7793,2.7793,2.7782,2.7803,2.7801,2.7817,2.7829,2.7817,2.7829,2.783,2.7828,2.7843,2.7813,2.782,2.7839,2.7865,2.7824,2.7809,2.7803,2.7886,2.7887,2.7887,2.7888,0,0,2.7726,2.7749,2.7744,2.7748,2.7763,2.7759,2.7749,2.7751,2.7748,2.7754,2.7745,2.7741,2.7758,2.7761,2.7777,2.7766,2.7728,2.7786,2.7787,2.7774,2.7694,2.7678,2.767,2.7741,2.774,2.7739,2.7692,0,2.7681,2.7665,2.7686,2.7665,2.766,2.769,2.7681,2.7688,2.77,2.7697,2.771,2.7706,2.773,2.7731,2.7722,2.7734,2.7712,2.7738,2.7731,2.7731,2.7726,2.7663,2.7647,2.7602,2.7687,2.7686,2.7685,0,2.7626,2.7629,2.7608,2.7623,2.7622,2.7613,2.7617,2.7614,2.7623,2.7632,2.7635,2.7654,2.7644,2.767,2.7656,2.7674,2.7672,2.7678,2.7677,2.7676,2.7704,2.7658,2.7588,2.7581,2.7676,2.7677,2.7678,0,2.7571,2.7571,2.7558,2.7561,2.7579,2.7572,2.7579,2.7589,2.7589,2.7592,2.7592,2.7593,2.7594,2.7594,2.7613,2.7631,2.7596,2.7625,2.7602,2.7602,2.7592,2.7592,2.7519,2.7594,2.7594,2.7594,2.7594,0,2.7518,2.7503,2.7533,2.7525,2.7509,2.7534,2.7517,2.7527,2.7536,2.7529,2.7556,2.7549,2.7575,2.7571,2.7586,2.7571,2.7571,2.7577,2.7581,2.7574,2.7573,2.7572,2.7575,2.7593,2.7593,2.7593,2.7594,0,2.7453,2.7473,2.7461,2.7479,2.7483,2.747,2.7486,2.7478,2.7492,2.7483,2.7483,2.7504,2.75,2.7519,2.7519,2.7529,2.7506,2.7516,2.7503,2.7506,2.7482,2.7483,2.7404,2.7395,2.7477,2.7476,2.7475,0,2.7417,2.7406,2.7424,2.7421,2.7427,2.7424,2.7424,2.7448,2.7446,2.7456,2.7447,2.7445,2.7445,2.7438,2.7453,2.7452,2.7461,2.7434,2.7461,2.7454,2.7459,2.7459,2.7457,2.7427,2.7426,2.7426,2.7425,0,2.735,2.736,2.736,2.7362,2.7362,2.7365,2.737,2.7366,2.7392,2.7389,2.7386,2.7386,2.7386,2.7384,2.7387,2.7393,2.7413,2.7417,2.7411,2.7403,2.7395,2.7397,2.7486,2.7418,2.7419,2.7419,2.7419,2.742,2.7298,2.7289,2.73,2.7298,2.7304,2.7308,2.7302,2.7315,2.7313,2.7315,2.7329,2.7323,2.7332,2.7337,2.7342,2.7337,2.735,2.7342,2.734,2.7337,2.7333,2.7397,2.7338,2.7338,2.7338,2.7338,2.7339,0,2.723,2.7239,2.7237,2.7243,2.7241,2.7262,2.7268,2.7265,2.7259,2.7266,2.7266,2.7261,2.7259,2.7274,2.7274,2.7267,2.7275,2.7266,2.7265,2.7266,2.7322,2.7326,2.7258,2.7258,2.7258,2.7258,2.7258,2.7258,2.7195,2.7182,2.7193,2.7183,2.7191,2.7186,2.7187,2.7191,2.7196,2.719,2.7189,2.7199,2.7209,2.7209,2.7208,2.7212,2.721,2.7197,2.7204,2.7255,2.7263,2.727,2.7274,2.7197,2.7196,2.7149,2.7148,2.7148]}]]